Regional Weather Roundup
Issued by NWS

Home | Current Version | Previous Version | Graphics & Text | Print | Product List | Glossary On
Versions: 1 2 3 4 5 6 7 8 9 10 11 12 13 14 15 16 17 18 19 20 21 22 23 24 25 26 27 28 29 30 31 32 33 34 35 36 37 38 39 40 41 42 43 44 45 46 47 48 49 50
000
ASUS43 KDMX 260006
RWRIA

WEATHER ROUNDUP FOR IOWA
NATIONAL WEATHER SERVICE DES MOINES IA
700 PM CDT WED APR 25 2018

NOTE: "FAIR" INDICATES FEW OR NO CLOUDS BELOW 12,000 FEET WITH NO
SIGNIFICANT WEATHER AND/OR OBSTRUCTIONS TO VISIBILITY.

* - THESE STATIONS ARE NOT NWS STATIONS...THUS NOT UNDER NWS
QUALITY CONTROL.  THEY ALSO DO NOT REPORT WEATHER SUCH
AS PRECIPITATION OR FOG.

IAZ001>003-012>014-020>022-031>034-043>046-260100-
   NORTHWEST IOWA

CITY           SKY/WX    TMP DP  RH WIND       PRES   REMARKS
CARROLL *      SUNNY     68  34  28 N9        30.03F
CHEROKEE *     SUNNY     61  25  25 CALM      30.03F
DENISON *      SUNNY     61  23  23 NE5       30.05S
LE MARS *      SUNNY     63  23  22 W5        30.03F
ORANGE CITY *  SUNNY     61  28  29 W3        30.04F
SHELDON *      SUNNY     61  23  23 SW5       30.01F
SIOUX CITY     SUNNY     61  31  32 CALM      30.04F
6HR MIN TEMP:  55; 6HR MAX TEMP:  63;

SPENCER        SUNNY     59  25  27 CALM      30.03F
6HR MIN TEMP:  54; 6HR MAX TEMP:  62;

STORM LAKE *   SUNNY     59  25  27 E6        30.04F
$$

IAZ055>058-069>071-079>083-090>094-260100-
   SOUTHWEST IOWA

CITY           SKY/WX    TMP DP  RH WIND       PRES   REMARKS
ATLANTIC *     SUNNY     63  25  23 NE8       30.02F
AUDUBON *      SUNNY     63  18  17 CALM      30.04F
CLARINDA *     MOSUNNY   59  36  41 W5        30.07F
COUNCIL BLFS * SUNNY     61  30  31 NW8       30.04F
CRESTON *      MOSUNNY   59  32  36 NW6       30.04F
HARLAN  *      SUNNY     63  25  23 N7        30.07S
LAMONI         PTSUNNY   57  33  40 NW7       30.03F
6HR MIN TEMP:  50; 6HR MAX TEMP:  60; 6HR PCP: TRACE;

RED OAK *      SUNNY     59  37  44 SW3       30.04F
SHENANDOAH *   SUNNY     57  39  51 W6        30.06F
$$

IAZ047>049-059>061-072>074-084-260100-
   CENTRAL IOWA

CITY           SKY/WX    TMP DP  RH WIND       PRES   REMARKS
AMES           SUNNY     62  30  29 N8G20     30.02F
6HR MIN TEMP:  58; 6HR MAX TEMP:  65;

ANKENY *       SUNNY     63  28  27 NE5       30.03S
BOONE *        SUNNY     61  32  33 N9        30.02F
CHARITON *     CLOUDY    59  28  31 SW5       30.02F
DES MOINES     MOSUNNY   64  27  24 NE8       30.01F
6HR MIN TEMP:  61; 6HR MAX TEMP:  67;

GRINNELL*      SUNNY     62  25  24 N6        30.03S
KNOXVILLE *    CLOUDY    63  25  23 VRB3      30.00F
MARSHALLTOWN   SUNNY     61  31  32 NW9       30.01F
6HR MIN TEMP:  58; 6HR MAX TEMP:  65;

NEWTON *       SUNNY     63  27  25 N8        30.01F
PELLA *        SUNNY     65  21  19 N3        30.02F
PERRY *        FAIR      61  21  21 N8        30.02F
$$

IAZ004>006-015-016-023>025-035-036-260100-
   NORTH CENTRAL IOWA

CITY           SKY/WX    TMP DP  RH WIND       PRES   REMARKS
ALGONA *       SUNNY     55  34  44 VRB5      30.05F
CLARION *      SUNNY     57  32  38 NW6       30.04F
ESTHERVILLE    SUNNY     55  33  43 SW3       30.03F
6HR MIN TEMP:  50; 6HR MAX TEMP:  57;

FORT DODGE *   SUNNY     58  30  34 N5        30.04F
MASON CITY     SUNNY     57  35  43 N7        30.05F
6HR MIN TEMP:  54; 6HR MAX TEMP:  60;

FOREST CITY *  FAIR      55  34  44 N3        30.05F
WEBSTER CITY * SUNNY     59  32  36 N6        30.02F
IOWA FALLS *   FAIR      60  33  36 NW6       30.05S
$$

IAZ007>011-017>019-026>030-037>042-050>054-066-260100-
   NORTHEAST IOWA

CITY           SKY/WX    TMP DP  RH WIND       PRES   REMARKS
CEDAR RAPIDS   FAIR      63  28  26 NW8       29.99F
6HR MIN TEMP:  60; 6HR MAX TEMP:  67;

CHARLES CITY * FAIR      57  32  38 N8        30.03F
DECORAH *      FAIR      57  27  30 VRB3G13   30.01F
DUBUQUE        FAIR      60  31  33 NW7       30.00F
6HR MIN TEMP:  56; 6HR MAX TEMP:  62;

MONTICELLO *   FAIR      63  28  27 N6        30.00S
OELWEIN *      FAIR      59  30  33 VRB5      30.02F
WATERLOO       FAIR      60  31  33 NW7       30.01F
6HR MIN TEMP:  58; 6HR MAX TEMP:  63;

$$

IAZ064-065-067-068-078-260100-
   EAST CENTRAL IOWA

CITY           SKY/WX    TMP DP  RH WIND       PRES   REMARKS
DAVENPORT      FAIR      61  28  28 NE6       30.01F
6HR MIN TEMP:  61; 6HR MAX TEMP:  65;

IOWA CITY      FAIR      64  25  22 N5        30.01F
6HR MIN TEMP:  60; 6HR MAX TEMP:  66;

MT. PLEASANT * CLOUDY    61  28  29 CALM      30.00S
MUSCATINE *    FAIR      64  27  24 N6        30.00S
QUAD CITIES    FAIR      63  29  27 NW5       29.98F
6HR MIN TEMP:  62; 6HR MAX TEMP:  67;

$$

IAZ062-063-075>077-085>089-095>099-260100-
   SOUTHEAST IOWA

CITY           SKY/WX    TMP DP  RH WIND       PRES   REMARKS
BURLINGTON     CLOUDY    62  32  32 S3        29.99F
6HR MIN TEMP:  58; 6HR MAX TEMP:  63;

FAIRFIELD *    MOCLDY    63  27  25 N7        29.99F
FORT MADISON * CLOUDY    59  37  44 CALM      30.01F
KEOKUK *       CLOUDY    59  39  47 SE5       30.00F
OSKALOOSA *    FAIR      64  24  22 N8        30.00F
CENTERVILLE *  FAIR      59  30  33 CALM      30.03F
OTTUMWA        PTSUNNY   63  27  25 CALM      30.00F
6HR MIN TEMP:  60; 6HR MAX TEMP:  66;

WASHINGTON *   PTCLDY    63  28  27 N10       30.01S
$$

ABBREVIATIONS USED IN REMARKS
   TC - TEMPERATURES IN CELSIUS
  WCI - WIND CHILL INDEX
   HX - HEAT INDEX
  VSB - VISIBILITY
$$





USA.gov is the U.S. government's official web portal to all federal, state and local government web resources and services.